OpenBCM V1.07b12 (Linux)

Packet Radio Mailbox

DB0FHN

[JN59NK Nuernberg]

 Login: GUEST





  
I0OJJ  > KEPS     13.02.25 06:03l 336 Lines 15904 Bytes #999 (0) @ AMSAT
BID : ORB25044.1
Read: DJ6UX GUEST
Subj: 2Line Orbital Elements 25044.AMSAT
Path: DB0FHN<DB0LHR<OK1TOR<OE2XZR<OE6XPE<DB0ERF<IZ3LSV<I0OJJ<I0OJJ
Sent: 250213/0345z @:I0OJJ.ITA.EU [Rome] obcm1.08-6-g5b69

>From i0ojj%i0ojj.ita.eu@i0ojj.ampr.org Thu Feb 13 04:45:08 2025
Received: from i0ojj.ampr.org by i0ojj.ampr.org (JNOS2.0p.6) with SMTP
	id AA17020906 ; Thu, 13 Feb 2025 04:45:08 +0100
Message-Id: <ORB25044.1@i0ojj.bbs>
>From: i0ojj@i0ojj.ita.eu
X-JNOS-User-Port: Telnet   (i0ojj @ 44.134.109.10)  -> Sending message

From: I0OJJ @ I0OJJ.ITA.EU (Gustavo)
To:   KEPS @ AMSAT
X-Info: This message was generated automatically


QST de W1STR

AMSAT Orbital Elements for Amateur Satellites in TLE Format
>From Orbital Analysis Office
New England Sci-Tech STEM Education Center
Natick, MA February 13, 2025
To all radio amateurs


These element sets describe the orbits of various satellites 
in use by the amateur radio community. For details see:
www.amsat.org/keplerian-elements-formats/

A daily update of element sets is available at:
www.amsat.org/tle/daily-bulletin.txt
or without bulletin text:
www.amsat.org/tle/dailytle.txt


AO-07
1 07530U 74089B   25043.59411470 -.00000031  00000-0  97473-4 0  9997
2 07530 101.9937  46.6122 0012123 346.7198 131.2303 12.53686139299169
UO-11
1 14781U 84021B   25043.47793731  .00002758  00000-0  30115-3 0  9996
2 14781  97.7393  12.3216 0008217  16.3017 343.8463 14.88676435184211
AO-27
1 22825U 93061C   25043.71063571  .00000241  00000-0  10933-3 0  9998
2 22825  98.7544 104.5988 0009495  95.4303 264.7962 14.30727274637272
FO-29
1 24278U 96046B   25043.63723410  .00000003  00000-0  42150-4 0  9997
2 24278  98.5874 312.8545 0348971 285.5869  70.7014 13.53236810406954
NOAA-15
1 25338U 98030A   25043.85095835  .00000311  00000-0  14587-3 0  9991
2 25338  98.5484  71.7234 0009877 347.0791  13.0136 14.26881388391755
GO-32
1 25397U 98043D   25043.51504943  .00000205  00000-0  10887-3 0  9999
2 25397  98.9570  20.2769 0001559 143.4865 216.6420 14.24252000381848
ISS
1 25544U 98067A   25043.89440547  .00014384  00000-0  25892-3 0  9994
2 25544  51.6367 202.6428 0004077 314.7899 170.9962 15.50064055495882
NO-44
1 26931U 01043C   25043.42313828  .00000367  00000-0  16861-3 0  9995
2 26931  67.0500  70.7280 0006042 264.0227  96.0187 14.31615528220337
SO-50
1 27607U 02058C   25043.62552844  .00002504  00000-0  33652-3 0  9990
2 27607  64.5529 201.3779 0042252   3.6652 356.4754 14.80936359191903
CO-55
1 27844U 03031E   25043.61270262  .00000669  00000-0  31150-3 0  9996
2 27844  98.6789  53.3901 0010024 160.9474 199.2082 14.23815614122026
CO-57
1 27848U 03031J   25043.57765159  .00000561  00000-0  26746-3 0  9995
2 27848  98.6815  53.4473 0009587 177.3749 182.7482 14.23176736121726
RS-22
1 27939U 03042A   25043.84302265  .00002309  00000-0  37805-3 0  9993
2 27939  98.3132 210.5902 0011966  24.3005 112.1647 14.71749624143650
NOAA-18
1 28654U 05018A   25043.83107308  .00000348  00000-0  20821-3 0  9994
2 28654  98.8516 124.5932 0015174 101.2405 259.0473 14.13513350 17252
CO-58
1 28895U 05043F   25043.35765799  .00003265  00000-0  55034-3 0  9995
2 28895  98.2286 186.4377 0014227 321.0728  38.9452 14.70141658 29711
CO-65
1 32785U 08021C   25043.53631893  .00009378  00000-0  71632-3 0  9997
2 32785  97.7682  14.1041 0009001 247.4089 112.6184 15.02153868911497
AAUSAT2
1 32788U 08021F   25043.53736992  .00093054  00000-0  17991-2 0  9997
2 32788  97.6055  35.1228 0007022  78.7041 281.4997 15.47404707915162
CO-66
1 32791U 08021J   25043.39262310  .00017038  00000-0  94494-3 0  9995
2 32791  97.7181  21.2838 0003912 172.4423 187.6868 15.13836943912738
RS-30
1 32953U 08025A   25043.78745736  .00000047  00000-0  26890-3 0  9997
2 32953  82.5039 299.8371 0018955 302.7250  57.2002 12.43158637759026
NOAA-19
1 33591U 09005A   25043.81848028  .00000315  00000-0  19231-3 0  9996
2 33591  99.0139 107.7966 0013212 337.1170  22.9411 14.13283244825614
SRMSAT
1 37841U 11058D   25043.58413519  .00000582  00000-0  17274-3 0  9997
2 37841  19.9709 142.5027 0011577 217.8390 170.0726 14.11359409688565
ZACUBE-1
1 39417U 13066B   25043.85193646  .00007273  00000-0  66353-3 0  9991
2 39417  97.7663   1.7465 0048083  82.0599 278.6074 14.94497065607469
Delfi-N3xt
1 39428U 13066N   25043.75662129  .00012469  00000-0  13489-2 0  9993
2 39428  97.8382 322.9300 0090544  25.7895 334.7793 14.85410123601891
GOMX-1
1 39430U 13066Q   25043.66917680  .00003850  00000-0  61204-3 0  9994
2 39430  97.6997 269.4503 0133579 205.9445 153.5024 14.66782774598266
LO-74
1 39440U 13066AA  25043.82858561  .00005459  00000-0  57740-3 0  9992
2 39440  97.8386 349.4253 0063419 203.4119 156.4208 14.88115928605268
AO-73
1 39444U 13066AE  25043.81977454  .00011851  00000-0  95911-3 0  9993
2 39444  97.7495   5.7467 0043489  59.6393 300.9119 14.99153064606668
DTUSAT-2
1 40030U 14033W   25043.63003864  .00011041  00000-0  77457-3 0  9992
2 40030  98.0432  10.1264 0012314  94.7410 265.5222 15.05300002578780
EO-80
1 40032U 14033Y   25043.39094124  .00012016  00000-0  84102-3 0  9994
2 40032  98.0299   9.6899 0010309  46.0744 314.1330 15.05379632578722
XW-2C
1 40906U 15049H   25043.80023898  .01357498  13518-2  11725-2 0  9995
2 40906  97.4390  79.3784 0003936 183.0839 177.0423 16.13668711522018
LILACSAT-2
1 40908U 15049K   25043.81800844  .00014701  00000-0  43741-3 0  9992
2 40908  97.5158  61.6060 0009023 208.1895 151.8860 15.34791165520293
IO-86
1 40931U 15052B   25038.81889873  .00001817  00000-0  15548-3 0  9993
2 40931   6.0001 108.1159 0012838 187.7041 172.2889 14.78568669506492
Horyu-4
1 41340U 16012D   25043.51186393  .00025707  00000-0  86975-3 0  9991
2 41340  30.9979 195.1170 0005977 290.8361  69.1643 15.29400100494808
Lapan A3
1 41603U 16040E   25043.83239733  .00005465  00000-0  19947-3 0  9990
2 41603  97.1390  53.1089 0010268 335.4902  24.5849 15.28480517479940
CAS-2T
1 41847U 16066G   25043.44893849  .00003089  00000-0  44875-3 0  9997
2 41847  98.4328 118.9159 0348468 172.5495 188.1070 14.42910284434124
CAS-4B
1 42759U 17034B   25043.84289776  .00043010  00000-0  82207-3 0  9997
2 42759  43.0112 289.3087 0016935 201.1057 158.9105 15.47233540424426
CAS-4A
1 42761U 17034D   25043.87335177  .00044534  00000-0  83671-3 0  9998
2 42761  43.0148 287.0881 0018317 207.2643 152.7256 15.47687003424447
TechnoSat
1 42829U 17042E   25043.72489528  .00004974  00000-0  40079-3 0  9995
2 42829  97.3890 218.0918 0012010 329.4566  30.5958 15.00291114413193
AO-91
1 43017U 17073E   25043.58110152  .00012858  00000-0  69870-3 0  9997
2 43017  97.5494 277.3987 0181334 204.3953 154.8611 15.01557935391633
S-Net D
1 43186U 18014G   25043.27849126  .00008688  00000-0  54186-3 0  9996
2 43186  97.5740 307.4718 0007729 268.5363  91.4981 15.09739946384666
S-Net B
1 43187U 18014H   25043.61391015  .00008593  00000-0  53610-3 0  9990
2 43187  97.5744 307.7688 0008470 261.4187  98.6083 15.09730204384716
S-Net A
1 43188U 18014J   25043.27924375  .00008553  00000-0  53343-3 0  9993
2 43188  97.5754 307.5735 0008353 263.5326  96.4952 15.09744012384664
S-Net C
1 43189U 18014K   25043.48348648  .00008534  00000-0  53236-3 0  9990
2 43189  97.5768 307.7694 0010001 253.9626 106.0502 15.09725139383246
Ten-Koh
1 43677U 18084G   25043.53148791  .00005046  00000-0  41727-3 0  9999
2 43677  98.0831 211.1543 0010929 297.9291  62.0824 14.99361098342691
PO-101
1 43678U 18084H   25043.81959122  .00003907  00000-0  34228-3 0  9991
2 43678  98.0922 215.6156 0007559 321.9628  38.1058 14.97287456342909
QO-100
1 43700U 18090A   25043.86572808  .00000136  00000-0  00000+0 0  9999
2 43700   0.0076 124.0598 0001324 215.7907 140.6961  1.00273953 23012
MinXSS-2
1 43758U 18099A   25043.46038114  .00020354  00000-0  94309-3 0  9997
2 43758  97.5196 109.4735 0013010 203.9874 156.0757 15.20044194339144
AO-95
1 43770U 18099N   25043.73011683  .00012375  00000-0  68972-3 0  9994
2 43770  97.5102 103.2721 0010444 255.8624 104.1447 15.13692248338857
RANGE-A
1 43773U 18099R   25043.10692271  .00006563  00000-0  43967-3 0  9995
2 43773  97.4667  94.9425 0010753 230.7260 129.3015 15.07169835338510
MOVE-II
1 43780U 18099Y   25043.45010014  .00067856  00000-0  16063-2 0  9998
2 43780  97.4839 113.6108 0004132 210.2610 149.8398 15.41536010339582
SNUSat 2
1 43782U 18099AA  25043.63622660  .00011509  00000-0  67940-3 0  9991
2 43782  97.4792 100.8343 0012583 193.0690 167.0216 15.11617798338812
SnugLite
1 43784U 18099AC  25043.71820039  .00012857  00000-0  71126-3 0  9990
2 43784  97.4596 100.2853 0003588 184.1438 175.9765 15.13987727338936
ITASat 1
1 43786U 18099AE  25043.72586163  .00008625  00000-0  52785-3 0  9998
2 43786  97.4752 100.7416 0013954 247.2996 112.6759 15.10372954338804
EAGLET 1
1 43790U 18099AJ  25043.12574178  .00005711  00000-0  38189-3 0  9995
2 43790  97.4945 100.4368 0011536 227.9077 132.1171 15.07293316338361
ESEO
1 43792U 18099AL  25043.57174574  .00002827  00000-0  22113-3 0  9997
2 43792  97.4607  95.6354 0010427 189.2749 170.8285 15.01784335338255
CSIM
1 43793U 18099AM  25043.43657515  .00074229  00000-0  17524-2 0  9998
2 43793  97.5018 115.5692 0007417 188.6154 171.4966 15.41571140339423
JO-97
1 43803U 18099AX  25043.65152797  .00016192  00000-0  83226-3 0  9994
2 43803  97.4850 104.0009 0008058 186.5627 173.5501 15.16521385339029
Suomi 100
1 43804U 18099AY  25043.63301400  .00014098  00000-0  76199-3 0  9994
2 43804  97.4920 103.5561 0013199 189.6828 170.4152 15.14726727338970
ISAT
1 43879U 18111D   25043.63958074  .00024329  00000-0  10336-2 0  9994
2 43879  97.6047 315.9710 0007875 242.7054 117.3381 15.23026102335853
UWE-4
1 43880U 18111E   25043.23027173  .00019626  00000-0  90158-3 0  9994
2 43880  97.5986 314.7375 0011228 259.5520 100.4450 15.20370477335765
Sparrow
1 43881U 18111F   25043.50619914  .00025314  00000-0  10481-2 0  9996
2 43881  97.6172 318.3102 0005700 298.1917  61.8743 15.23903469335917
